Miscellaneous Local Product
Issued by NWS Hastings, NE

Home | Current Version | Previous Version | Graphics & Text | Print | Product List | Glossary On
Versions: 1 2 3 4 5 6 7 8 9 10 11 12 13 14 15 16 17 18 19 20 21 22 23 24 25 26 27 28 29 30 31 32 33 34 35 36 37 38 39 40 41 42 43 44 45 46 47 48 49 50
060
AXUS43 KGID 230002
MISGRI

GID CWA HOURLY WEATHER ROUNDUP
NATIONAL WEATHER SERVICE HASTINGS NE
600 PM CST SUN JAN 22 2017

NOTE: "FAIR" INDICATES FEW OR NO CLOUDS BELOW 12,000 FEET WITH NO
SIGNIFICANT WEATHER AND/OR OBSTRUCTIONS TO VISIBILITY.

...SOUTH CENTRAL NEBRASKA...

CITY           SKY/WX    TMP DP  RH WIND       PRES   REMARKS
GRAND ISLAND   CLEAR     39  31  72 NW6       29.86R WCI  35
HASTINGS       CLEAR     39  32  76 NW6       29.87R WCI  35
KEARNEY        CLEAR     45  30  57 CALM      29.86S
ORD            CLEAR     37  27  67 NW5       29.85R WCI  33
YORK           CLEAR     37  32  81 CALM      29.86R
AURORA         CLEAR     37  32  81 NW5       29.86R WCI  34
LEXINGTON      CLEAR     40  30  69 W7        29.86S WCI  35
HOLDREGE       CLEAR     41  31  68 W3        29.86S
HEBRON         CLEAR     38  32  78 CALM      29.88R

...NEBRASKA PANHANDLE...

CITY           SKY/WX    TMP DP  RH WIND       PRES   REMARKS
CHADRON        CLEAR     35  26  69 W3        29.85F
ALLIANCE       CLEAR     36  20  52 W7        29.84F WCI  30
SCOTTSBLUFF    CLEAR     37  18  46 W8        29.87S WCI  31
SIDNEY         CLEAR     35  18  49 NW9       29.88S WCI  28

...WESTERN AND NORTH CENTRAL NEBRASKA...

CITY           SKY/WX    TMP DP  RH WIND       PRES   REMARKS
VALENTINE      CLEAR     35  24  64 NW5       29.87S WCI  31
AINSWORTH      CLEAR     36  27  69 NW6       29.87R WCI  31
ONEILL         CLEAR     36  29  76 NW9       29.87R WCI  29
BROKEN BOW     CLEAR     38  28  67 N8        29.85R WCI  32
IMPERIAL       CLEAR     40  24  53 NW5       29.89S
NORTH PLATTE   CLEAR     36  25  64 NW6       29.87R WCI  31
MCCOOK         CLEAR     42  28  57 NW7       29.89R

...EASTERN NEBRASKA...

CITY           SKY/WX    TMP DP  RH WIND       PRES   REMARKS
NORFOLK        CLEAR     35  27  72 NW7       29.84R WCI  29
SO SIOUX CITY  MOCLDY    34  31  88 NW3       29.84R
TEKAMAH        PTCLDY    34  30  85 N8        29.85R WCI  27
COLUMBUS       CLEAR     36  28  75 CALM      29.87R
ALBION         CLEAR     36  19  49 NW5       29.86R WCI  32
OMAHA EPPLEY   PTCLDY    34  29  82 NW7       29.85R WCI  28
OFFUTT AFB     CLEAR     35  35 100 NW8       29.84R WCI  28
MILLARD        MOCLDY    39  35  85 NW5       29.85R
LINCOLN        CLEAR     36  31  82 NW3       29.88R
NEBRASKA CITY  CLEAR     34  33  96 NW7       29.84R WCI  28
BEATRICE       CLEAR     33  31  95 NW6       29.87R WCI  27
FALLS CITY     CLOUDY    38  34  85 NW9       29.84R WCI  31

...NORTHERN KANSAS...

CITY           SKY/WX    TMP DP  RH WIND       PRES   REMARKS
GOODLAND       CLEAR     38  25  59 W8        29.91R WCI  32
HILL CITY      CLEAR     44  29  55 NW5       29.90R
NORTON         CLEAR     39  25  56 W7        29.88  WCI  34
PHILLIPSBURG   CLEAR     45  28  53 W5        29.89S
SMITH CENTER   CLEAR     39  30  70 W6        29.89R WCI  35
HAYS           CLEAR     46  26  45 NW6       29.90R
RUSSELL        CLEAR     41  26  55 NW9       29.88R
CONCORDIA      CLEAR     40  32  73 N5        29.87R
SALINA         CLEAR     41  30  65 N7        29.89R
TOPEKA         CLOUDY    41  34  76 NW10      29.84R



USA.gov is the U.S. government's official web portal to all federal, state and local government web resources and services.